Other Public Products
Issued by NWS Grand Forks, ND

Home | Current Version | Previous Version | Text Only | Print | Product List | Glossary Off
Versions: 1 2 3 4 5 6 7 8 9 10 11 12 13 14 15 16 17 18 19 20 21 22 23 24 25 26 27 28 29 30 31 32 33 34 35 36 37 38 39 40 41 42 43 44 45 46 47 48 49 50

000
FPUS83 KFGF 230810
OPUFGF
PRAIRIE TO PINES WEATHER ROUNDUP
NATIONAL WEATHER SERVICE EASTERN NORTH DAKOTA/GRAND FORKS ND
300 AM CDT TUE SEP 23 2014

 **SATELLITE DATA USED TO AUGMENT SKY COVER AT AUTOMATED STATIONS**
 *****  WEATHER ACROSS EASTERN NORTH DAKOTA  *****

CITY           SKY/WX    TMP DP  RH WIND       PRES   REMARKS
GRAND FORKS    CLEAR     53  48  83 S7        30.01F
GRAND FORKS AF CLEAR     50  49  98 SE6       30.01F
GRAND CITY NWS   N/A     54 N/A N/A S6          N/A
BUXTON         NOT AVBL
DEVILS LAKE    CLEAR     57  46  67 SE5       29.96F
FARGO          CLEAR     59  48  67 SE9       30.04F
WAHPETON ARPT  SUNNY     54  45  71 SE8       30.06F
$$

 *****  WEATHER ACROSS CENTRAL AND WESTERN NORTH DAKOTA  *****

CITY           SKY/WX    TMP DP  RH WIND       PRES   REMARKS
JAMESTOWN      CLEAR     57  50  77 S10       29.98F
BISMARCK       CLEAR     56  51  84 SE8       29.92F
MINOT          CLEAR     53  48  83 E3        29.89F
MINOT AFB      CLEAR     51  50  95 SE6       29.89F
GARRISON         N/A     56  51  84 SE5       29.90F
WILLISTON      CLEAR     52  47  83 N5        29.85F
DICKINSON      CLEAR     53  48  83 SE9       29.87F
HETTINGER      PTCLDY    49  47  93 CALM      29.89F
$$

 *****  OTHER OBSERVATIONS NORTHEAST NORTH DAKOTA  *****

CITY           SKY/WX    TMP DP  RH WIND       PRES   REMARKS
WALHALLA         N/A     55  48  76 CALM      29.99F
LANGDON        FAIR      57  46  67 S13       29.99F
CAVALIER       FAIR      50  46  87 S8        30.00F
GRAFTON        FAIR      50  48  93 SE8       30.01F
CANDO          FAIR      50  48  93 SE9       29.97F
FORT TOTTEN      N/A     57  47  70 SE9       29.95S
ROLLA          FAIR      50  46  87 S3        29.98F
RUGBY          FAIR      57  50  77 SE8       29.94F
 ***** THE ABOVE OBSERVATIONS ARE NON NWS ARE NOT QUALITY
        CONTROLLED AND MAY MIS-REPORT RAIN FOR SNOW...
$$

 *****  OTHER OBSERVATIONS SOUTHEAST NORTH DAKOTA *****

CITY           SKY/WX    TMP DP  RH WIND       PRES   REMARKS
COOPERSTOWN    NOT AVBL
VALLEY CITY    FAIR      55  54  94 S7        30.01F
OAKES            N/A     55  52  88 SE8       30.02S
GWINNER        SUNNY     55  52  88 SE6       30.04S
BUFFALO        NOT AVBL
WYNDMERE         N/A     52  48  87 E3          N/A
 ***** THE ABOVE OBSERVATIONS ARE NON NWS ARE NOT QUALITY
       CONTROLLED AND MAY MIS-REPORT RAIN FOR SNOW...
$$

  *****  WEATHER ACROSS NORTHERN MINNESOTA  *****

CITY           SKY/WX    TMP DP  RH WIND       PRES   REMARKS
FLAG ISLAND    CLEAR     57  52  82 S6        30.05F
WARROAD        CLEAR     54  48  82 S3        30.07F
ROSEAU         CLEAR     52  46  82 S7        30.06F
HALLOCK        CLEAR     52  48  87 SE9       30.02S
THF RVR FALLS  CLEAR     54  46  76 SE7       30.06F
HALSTAD          N/A     52  48  86 SE7         N/A
FOSSTON        CLEAR     54  48  82 SE7       30.09S
BAUDETTE       CLEAR     49  47  93 CALM      30.08F
WASKISH        CLEAR     54  48  82 CALM      30.10F
CROOKSTON      CLEAR     52  48  87 SE8       30.05S
$$
  *****  WEATHER ACROSS CENTRAL AND WEST MINNESOTA  *****

CITY           SKY/WX    TMP DP  RH WIND       PRES   REMARKS
BEMIDJI        CLEAR     45  44  96 CALM      30.11F
PARK RAPIDS    CLEAR     49  47  93 SE6       30.12F
WADENA         CLEAR     46  43  87 SE3       30.12F
DETROIT LAKES  CLEAR     54  50  87 SE6       30.11S
MOORHEAD       CLEAR     57  52  82 S9        30.06S
FERGUS FALLS   CLEAR     57  46  67 S10       30.09F
ELBOW LAKE     FAIR      53  48  82 SE9       30.10F
MORRIS MN      CLEAR     52  48  87 SE8       30.10S
STAPLES        CLEAR     45  43  93 CALM      30.14S
WHEATON        CLEAR     48  46  93 SE6       30.09F
$$
  *****  WEATHER ELSEWHERE ACROSS MINNESOTA  *****

CITY           SKY/WX    TMP DP  RH WIND       PRES   REMARKS
DULUTH         CLEAR     55  47  74 W8        30.17R
INTRNTL FALLS  CLEAR     42  41  96 CALM      30.11S
ELY            CLEAR     43  41  93 CALM      30.15S
CLOQUET        NOT AVBL
BRAINERD       CLEAR     46  46 100 CALM      30.15F
HIBBING        CLOUDY    39  37  92 CALM      30.16S FOG
ALEXANDRIA     CLEAR     51  46  83 SE6       30.13F
SAINT CLOUD    CLEAR     49  46  90 CALM      30.16F
MINNEAPOLIS    CLEAR     54  50  86 CALM      30.18F
$$

  *****  WEATHER ACROSS SOUTH DAKOTA  *****

CITY           SKY/WX    TMP DP  RH WIND       PRES   REMARKS
SIOUX FALLS    CLOUDY    60  50  69 S9        30.11F
BROOKINGS      NOT AVBL
WATERTOWN      CLEAR     53  48  83 SE10      30.07F
HURON          MOCLDY    63  51  65 S9        30.04F
SISSETON         N/A     52  49  89 SE8       30.05S
ABERDEEN       CLEAR     60  50  69 S12       30.02S
MITCHELL       CLOUDY    62  54  74 S12       30.07S
PIERRE         CLOUDY    62  54  74 S17       29.95F
MOBRIDGE       PTCLDY    63  55  75 SE16      29.92F
RAPID CITY     MOCLDY    57  54  89 SE8       29.92F
$$

  *****  SOME WEATHER IN NEARBY STATES *****

CITY           SKY/WX    TMP DP  RH WIND       PRES   REMARKS
GLASGOW MT     CLEAR     54  46  74 E8        29.83S
GREAT FALLS MT PTCLDY    62  48  60 SW12      29.94R
CHEYENNE WY    MOCLDY    57  43  59 W14       30.15R
SCOTTSBLUFF NE CLEAR     51  50  96 E7        30.01F
OMAHA NE       CLOUDY    62  52  69 S9        30.17F
DES MOINES IA  CLEAR     54  50  86 SE7       30.22F
DAVENPORT IA   CLEAR     46  42  86 CALM      30.27S
CHICAGO IL     CLEAR     53  43  68 CALM      30.27S
EAU CLAIRE WI  FOG       45  45 100 CALM      30.20S VSB 3/4
LA CROSSE WI   PTCLDY    51  49  92 SE7       30.23S
$$

  *****  SOME NATIONAL WEATHER *****

CITY           SKY/WX    TMP DP  RH WIND       PRES   REMARKS
LA GUARDIA NY  PTCLDY    54  40  59 NW9       30.21R
RALEIGH NC     CLOUDY    62  49  62 NE9       30.19R
ATLANTA GA     CLEAR     63  56  78 NE9       30.13S
NEW ORLEANS LA CLEAR     74  55  51 NE17G26   30.04F
OKLAHOMA CITY  MOCLDY    58  51  78 SE5       30.19S
ALBUQUERQUE NM PTCLDY    63  60  90 SE9       30.26S
SALT LAKE CITY MOCLDY    64  52  64 SE6       30.12R
LOS ANGELES CA CLEAR     66  63  89 CALM      29.95S
BOISE ID       CLOUDY    67  52  58 E13       30.03F
SEATTLE WA     PTCLDY    60  54  80 S3        29.92S
$$

*** WEATHER ACROSS MANITOBA...SASKATCHEWAN AND ONTARIO ***
                ***ONTARIO***

CITY           SKY/WX    TMP DP  RH WIND       PRES   REMARKS
GERALDTON      FOG       52  52 100 NE3       30.08R VSB 3/4
THUNDER BAY    CLEAR     54  50  87 SW8       30.10R
SIOUX LOOKOUT  CLEAR     46  45  93 S2        30.08R
TORONTO        PTCLDY    46  41  81 W8        30.23S
BIG TROUT LK   CLOUDY    45  43  93 SE6       30.10R FOG
PICKLE LAKE    NOT AVBL
DRYDEN         CLEAR     55  50  82 S8        30.09R
KENORA         CLEAR     57  52  82 S7        30.08R
$$
                *** MANITOBA***

CITY           SKY/WX    TMP DP  RH WIND       PRES   REMARKS
BRANDON        CLEAR     48  45  87 E7        29.94F
DAUPHIN        CLEAR     66  48  52 SW13G18   29.87F
ISLAND LAKE    CLEAR     54  52  94 E6        29.97F
PILOT MOUND      N/A     54  46  76 S9          N/A
THE PAS        CLEAR     50  48  93 SE10      29.78F
THOMPSON       CLOUDY    48  48 100 SE7       29.86F
WINNIPEG       CLEAR     55  48  76 S12       30.00S
LYNN LAKE      CLEAR     48  46  93 SE7       29.72F
CHURCHILL      PTCLDY    36  34  93 S16       29.97F
GILLAM         CLOUDY    41  41 100 SE9       29.97F
$$
                ***SASKATCHEWAN***

CITY           SKY/WX    TMP DP  RH WIND       PRES   REMARKS
ESTEVAN        CLEAR     50  48  93 E6        29.87F
KINDERSLEY     PTCLDY    50  46  87 S6        29.76S
LLOYDMINSTER   CLEAR     54  45  71 W10       29.73R
PRINCE ALBERT  CLEAR     46  45  93 E6        29.72S
REGINA         CLEAR     52  48  87 SE10      29.84S
YORKTON        CLEAR     54  48  82 S9        29.85F


USA.gov is the U.S. government's official web portal to all federal, state and local government web resources and services.